CW5752 Weather Reports


Display with metric or nautical units.
time (UTC)temp
F
wind
direction
speed
MPH
gust
MPH
rain 1hr
in
rain 24hr
in
rain mn
in
humidity
%
barometer
mb
20201201180535 37 284 6.0 12.0 0.00 0.00 0.00 62 1021.2
20201201175517 37 273 7.0 11.0 0.00 0.00 0.00 65 1021.3
20201201174534 36 270 8.0 14.0 0.00 0.00 0.00 66 1021.4
20201201173521 36 277 8.0 14.0 0.00 0.00 0.00 65 1021.5
20201201172521 36 268 5.0 17.0 0.00 0.00 0.00 67 1021.6
20201201171525 35 269 5.0 12.0 0.00 0.00 0.00 68 1021.7
20201201170524 35 279 6.0 13.0 0.00 0.00 0.00 68 1021.8
20201201165522 35 276 7.0 13.0 0.00 0.00 0.00 67 1021.8
20201201164525 34 273 7.0 14.0 0.00 0.00 0.00 70 1021.8
20201201163519 34 268 6.0 10.0 0.00 0.00 0.00 72 1021.9
20201201162523 34 260 5.0 12.0 0.00 0.00 0.00 73 1022.0
20201201161529 33 272 9.0 15.0 0.00 0.00 0.00 73 1022.2
20201201160521 33 266 7.0 14.0 0.00 0.00 0.00 73 1022.1
20201201155543 32 274 9.0 13.0 0.00 0.00 0.00 74 1022.1
20201201154527 32 275 7.0 12.0 0.00 0.00 0.00 76 1022.0
20201201153523 31 265 7.0 11.0 0.00 0.00 0.00 77 1022.1
20201201152517 31 267 7.0 12.0 0.00 0.00 0.00 78 1022.1
20201201151532 30 265 4.0 9.0 0.00 0.00 0.00 80 1022.1
20201201150521 30 271 7.0 10.0 0.00 0.00 0.00 81 1022.0
20201201145528 29 263 5.0 9.0 0.00 0.00 0.00 81 1022.0
20201201144523 29 263 6.0 10.0 0.00 0.00 0.00 82 1021.8
20201201143524 29 265 6.0 10.0 0.00 0.00 0.00 83 1021.8
20201201142516 28 269 7.0 10.0 0.00 0.00 0.00 84 1021.7
20201201141516 28 270 7.0 11.0 0.00 0.00 0.00 84 1021.7
20201201140525 27 266 8.0 10.0 0.00 0.00 0.00 85 1021.6
20201201135525 27 262 6.0 9.0 0.00 0.00 0.00 86 1021.4
20201201134855 27 267 6.0 9.0 0.00 0.00 0.00 86 1021.4
20201201133521 27 268 6.0 9.0 0.00 0.00 0.00 87 1021.1
20201201132522 26 265 6.0 9.0 0.00 0.00 0.00 87 1020.9
20201201131519 26 264 3.0 7.0 0.00 0.00 0.00 89 1020.8
20201201130516 25 267 2.0 5.0 0.00 0.00 0.00 89 1020.7
20201201125520 25 269 0.0 4.0 0.00 0.00 0.00 89 1020.5
20201201124537 25 269 1.0 4.0 0.00 0.00 0.00 88 1020.4
20201201123521 26 269 2.0 5.0 0.00 0.00 0.00 88 1020.3
20201201122520 26 269 2.0 4.0 0.00 0.00 0.00 87 1020.2
20201201121520 26 269 2.0 5.0 0.00 0.00 0.00 87 1020.0
20201201120521 26 269 3.0 5.0 0.00 0.00 0.00 86 1019.9
20201201115515 27 269 1.0 5.0 0.00 0.00 0.00 85 1019.8
20201201114522 27 269 3.0 7.0 0.00 0.00 0.00 85 1019.8
20201201113520 27 271 4.0 6.0 0.00 0.00 0.00 84 1019.8
20201201112522 27 273 4.0 6.0 0.00 0.00 0.00 84 1019.7
20201201111521 28 283 4.0 6.0 0.00 0.00 0.00 84 1019.7
20201201110520 28 292 3.0 5.0 0.00 0.00 0.00 82 1019.7
20201201105525 28 292 3.0 6.0 0.00 0.00 0.00 81 1019.6
20201201104528 29 0.0 1.0 0.00 0.00 0.00 78 1019.6
20201201103527 29 300 0.0 2.0 0.00 0.00 0.00 77 1019.7
20201201102533 30 0.0 0.0 0.00 0.00 0.00 76 1019.6
20201201101523 30 300 0.0 3.0 0.00 0.00 0.00 75 1019.6
20201201100520 30 300 0.0 4.0 0.00 0.00 0.00 76 1019.7
20201201095521 30 300 2.0 6.0 0.00 0.00 0.00 75 1019.6
20201201094525 30 300 2.0 4.0 0.00 0.00 0.00 75 1019.7
20201201093516 30 300 2.0 4.0 0.00 0.00 0.00 75 1019.7
20201201092524 30 297 2.0 5.0 0.00 0.00 0.00 76 1019.7
20201201091521 31 304 2.0 4.0 0.00 0.00 0.00 75 1019.6
20201201090520 31 305 2.0 5.0 0.00 0.00 0.00 73 1019.7
20201201085528 31 306 3.0 8.0 0.00 0.00 0.00 71 1019.6
20201201084528 31 340 3.0 9.0 0.00 0.00 0.00 71 1019.5
20201201083521 31 331 1.0 5.0 0.00 0.00 0.00 72 1019.5
20201201082515 31 331 2.0 6.0 0.00 0.00 0.00 71 1019.4
20201201081523 31 329 2.0 5.0 0.00 0.00 0.00 71 1019.4
20201201080521 31 332 3.0 8.0 0.00 0.00 0.00 71 1019.3
20201201075521 31 344 4.0 9.0 0.00 0.00 0.00 71 1019.3
20201201074525 31 348 4.0 7.0 0.00 0.00 0.00 71 1019.2
20201201073522 31 349 4.0 10.0 0.00 0.00 0.00 71 1019.1
20201201072521 31 347 4.0 9.0 0.00 0.00 0.00 71 1019.1
20201201071523 31 346 4.0 9.0 0.00 0.00 0.00 71 1019.1
20201201070525 31 344 4.0 11.0 0.00 0.00 0.00 71 1019.0
20201201065521 31 326 3.0 13.0 0.00 0.00 0.00 70 1019.1
20201201064524 31 329 4.0 9.0 0.00 0.00 0.00 70 1019.1
20201201063520 31 331 5.0 11.0 0.00 0.00 0.00 70 1019.0
20201201062527 31 319 5.0 12.0 0.00 0.00 0.00 71 1019.1
20201201061524 31 310 7.0 13.0 0.00 0.00 0.00 71 1019.2
20201201060518 31 309 7.0 10.0 0.00 0.00 0.00 71 1019.2
20201201055521 31 324 3.0 10.0 0.00 0.00 0.00 71 1019.2
20201201054526 31 315 4.0 11.0 0.00 0.00 0.00 71 1019.3
20201201053516 31 316 4.0 12.0 0.00 0.00 0.00 70 1019.3
20201201052521 31 322 4.0 11.0 0.00 0.00 0.00 70 1019.4
20201201051523 31 311 6.0 11.0 0.00 0.00 0.00 70 1019.4
20201201050522 31 317 5.0 10.0 0.00 0.00 0.00 69 1019.4
20201201045525 31 322 4.0 10.0 0.00 0.00 0.00 69 1019.4
20201201044521 31 330 4.0 11.0 0.00 0.00 0.00 69 1019.3
20201201043517 31 330 3.0 8.0 0.00 0.00 0.00 70 1019.3
20201201042516 31 334 3.0 7.0 0.00 0.00 0.00 70 1019.4
20201201041523 31 338 5.0 10.0 0.00 0.00 0.00 70 1019.3
20201201040524 31 318 4.0 11.0 0.00 0.00 0.00 69 1019.2
20201201035521 31 340 2.0 10.0 0.00 0.00 0.00 71 1019.3
20201201034533 31 325 4.0 9.0 0.00 0.00 0.00 71 1019.3
20201201033521 32 341 3.0 8.0 0.00 0.00 0.00 71 1019.2
20201201033027 32 327 3.0 9.0 0.00 0.00 0.00 72 1019.2
20201201032024 32 324 3.0 8.0 0.00 0.00 0.00 72 1019.3
20201201031023 32 328 3.0 9.0 0.00 0.00 0.00 72 1019.3
20201201030031 32 313 3.0 9.0 0.00 0.00 0.00 73 1019.3
20201201025030 32 314 5.0 11.0 0.00 0.00 0.00 72 1019.3
20201201024022 32 320 3.0 9.0 0.00 0.00 0.00 72 1019.4
20201201023026 32 320 4.0 9.0 0.00 0.00 0.00 71 1019.5
20201201022022 32 338 5.0 11.0 0.00 0.00 0.00 70 1019.5
20201201021029 32 337 3.0 8.0 0.00 0.00 0.00 71 1019.5
20201201020034 32 337 5.0 13.0 0.00 0.00 0.00 70 1019.6
20201201015025 32 320 4.0 10.0 0.00 0.00 0.00 70 1019.6
20201201014025 32 318 5.0 13.0 0.00 0.00 0.00 69 1019.7
20201201013021 32 317 7.0 14.0 0.00 0.00 0.00 69 1019.6
20201201012028 32 316 5.0 10.0 0.00 0.00 0.00 70 1019.4
20201201011024 32 321 6.0 17.0 0.00 0.00 0.00 70 1019.4
20201201010036 32 316 7.0 13.0 0.00 0.00 0.00 70 1019.3
20201201005021 33 321 6.0 13.0 0.00 0.00 0.00 71 1019.2
20201201004025 33 312 7.0 12.0 0.00 0.00 0.00 73 1019.0
20201201003037 33 309 7.0 11.0 0.00 0.00 0.00 75 1018.8
20201201002021 32 312 7.0 11.0 0.00 0.00 0.00 75 1018.8
20201201001024 32 307 7.0 11.0 0.00 0.00 0.00 76 1018.7
20201201000047 33 306 6.0 9.0 0.00 0.00 0.00 76 1018.7
20201130235018 33 307 9.0 14.0 0.00 0.00 0.00 74 1018.6
20201130234029 33 304 8.0 13.0 0.00 0.00 0.00 74 1018.5
20201130233039 33 310 9.0 15.0 0.00 0.00 0.00 73 1018.3
20201130232023 33 318 7.0 19.0 0.00 0.00 0.00 72 1018.2
20201130231025 33 299 10.0 17.0 0.00 0.00 0.00 73 1018.1
20201130230124 33 306 10.0 17.0 0.00 0.00 0.00 72 1018.0
20201130225027 33 309 8.0 15.0 0.00 0.00 0.00 73 1018.0
20201130224026 33 304 10.0 17.0 0.00 0.00 0.00 72 1018.0
20201130223031 33 306 8.0 14.0 0.00 0.00 0.00 73 1017.8
20201130222032 33 306 9.0 13.0 0.00 0.00 0.00 72 1017.7
20201130221022 34 311 10.0 16.0 0.00 0.00 0.00 71 1017.7
20201130220114 34 308 7.0 12.0 0.00 0.00 0.00 72 1017.7
20201130215026 34 311 8.0 18.0 0.00 0.00 0.00 71 1017.5
20201130214021 34 314 7.0 15.0 0.00 0.00 0.00 70 1017.4
20201130213028 34 316 9.0 16.0 0.00 0.00 0.00 70 1017.3
20201130212035 35 306 13.0 20.0 0.00 0.00 0.00 65 1017.1
20201130211023 35 299 12.0 18.0 0.00 0.00 0.00 67 1017.1
20201130210033 36 315 8.0 16.0 0.00 0.00 0.00 68 1017.1
20201130205022 35 301 11.0 20.0 0.00 0.00 0.00 70 1017.0
20201130204024 35 307 13.0 20.0 0.00 0.00 0.00 69 1016.9
20201130203026 35 308 14.0 20.0 0.00 0.00 0.00 69 1016.8
20201130202018 36 312 13.0 21.0 0.00 0.00 0.00 70 1016.8
20201130201025 36 303 15.0 25.0 0.00 0.00 0.00 68 1016.7
20201130200032 37 311 11.0 19.0 0.00 0.00 0.00 71 1016.7
20201130195037 37 316 12.0 23.0 0.00 0.00 0.00 67 1016.6
20201130194022 37 299 15.0 25.0 0.00 0.00 0.00 66 1016.3
20201130193022 38 299 14.0 23.0 0.00 0.00 0.00 70 1016.3
20201130192025 38 308 12.0 20.0 0.00 0.00 0.00 67 1016.4
20201130191024 38 300 14.0 22.0 0.00 0.00 0.00 70 1016.5
20201130190030 38 309 11.0 21.0 0.00 0.00 0.00 73 1016.4
20201130185022 36 301 11.0 19.0 0.00 0.00 0.00 73 1016.6
20201130184021 36 307 10.0 19.0 0.00 0.00 0.00 75 1016.7
20201130183031 36 315 9.0 14.0 0.00 0.00 0.00 74 1016.7
20201130182023 35 316 9.0 17.0 0.00 0.00 0.00 75 1016.7